Regional Weather Roundup
Issued by NWS

Home | Current Version | Previous Version | Graphics & Text | Print | Product List | Glossary On
Versions: 1 2 3 4 5 6 7 8 9 10 11 12 13 14 15 16 17 18 19 20 21 22 23 24 25 26 27 28 29 30 31 32 33 34 35 36 37 38 39 40 41 42 43 44 45 46 47 48 49 50
000
ASUS43 KLOT 251612
RWRIL

ILLINOIS REGIONAL WEATHER ROUNDUP
NATIONAL WEATHER SERVICE CHICAGO/ROMEOVILLE IL
1100 AM CDT SAT APR 25 2015

NOTE: "FAIR" INDICATES FEW OR NO CLOUDS BELOW 12,000 FEET WITH NO
SIGNIFICANT WEATHER AND/OR OBSTRUCTIONS TO VISIBILITY.

* THESE STATIONS ARE NOT UNDER NWS QUALITY CONTROL. THEY ALSO MAY NOT
  REPORT WEATHER SUCH AS PRECIPITATION OR FOG.

ILZ001-002-007-009-015-016-024-251700-
NORTHWEST ILLINOIS

CITY           SKY/WX    TMP DP  RH WIND       PRES   REMARKS
MOLINE         LGT RAIN  46  43  89 NE18G26   29.68F FOG
STERLING*      CLOUDY    45  39  81 NE18G25   29.73R
SAVANNA*       CLOUDY    46  41  83 NE15      29.73F
$$

ILZ003-004-008-010-011-017-018-251700-
NORTH CENTRAL ILLINOIS

CITY           SKY/WX    TMP DP  RH WIND       PRES   REMARKS
ROCKFORD       CLOUDY    46  37  71 NE15      29.78F
FREEPORT*      CLOUDY    44  38  78 E18G24    29.77R
ROCHELLE*      RAIN      42  41  95 NE17G23   29.74S
DE KALB*       LGT RAIN  41  39  93 E14       29.76R
PERU*          RAIN      45  44  96 SE14      29.73R
$$

ILZ005-006-012>014-019>023-251700-
NORTHEAST ILLINOIS

CITY           SKY/WX    TMP DP  RH WIND       PRES   REMARKS
CHICAGO-OHARE  LGT RAIN  43  39  86 E12       29.78R
CHICAGO-MIDWAY LGT RAIN  46  42  86 E16       29.76R
AURORA         LGT RAIN  45  41  86 E14       29.75S FOG
LANSING*       LGT RAIN  44  40  84 E10G20    29.73F
JOLIET*        LGT RAIN  46  44  93 E8        29.74S
WAUKEGAN       CLOUDY    42  38  85 NE16G25   29.79F
DUPAGE AIRPORT RAIN      44  41  89 E13       29.75S FOG
KANKAKEE*      RAIN      43  42  96 E21       29.71S
WHEELING       CLOUDY    43  38  82 E7        29.80R
MORRIS*        LGT RAIN  45  42  91 E12G17    29.72R
ROMEOVILLE*    RAIN      44  41  91 E14       29.74F
NORTHERLY ISL    N/A     43  39  86 E15         N/A
$$

LMZ740>746-251700-
SOUTHERN LAKE MICHIGAN

STATION/POSITION SKY/WX   TEMP    WIND        PRES    VSBY  WAVE
                          AIR SEA DIR/SP/G                  HT/PER
                          (F)     (DEG/KT/KT) (MB)    (MI)  (FT/S)
HARRISON CRIB              41      80/ 18/ 21   N/A
BURNHAM HARBOR             42      60/ 13/ 18   N/A
CALUMET HARBOR             43      80/ 12/ 16   N/A
BURNS HARBOR               44     100/ 13/ 18 1008.5F
MICHIGAN CITY              43      80/ 18/ 24   N/A
MICHIGAN CITY 6N           43 44  110/ 16/ 19   N/A           2/ 4
$$

ILZ025>027-034>036-040-047-049-050-058-095>099-251700-
WEST-CENTRAL ILLINOIS

CITY           SKY/WX    TMP DP  RH WIND       PRES   REMARKS
QUINCY         CLOUDY    51  49  92 E15       29.54S FOG
GALESBURG*     LGT RAIN  46  45  95 E20       29.62F
MACOMB*        CLOUDY    47  47  99 SE13G25   29.61F
JACKSONVILLE*  RAIN      53  51  94 E16       29.58S
PITTSFIELD*    DRIZZLE   52  50  93 NE12      29.56F
$$

ILZ028>032-037-038-041>044-048-051>054-059>061-251700-
CENTRAL ILLINOIS

CITY           SKY/WX    TMP DP  RH WIND       PRES   REMARKS
PONTIAC        LGT RAIN  45  45  97 E8G16     29.75R
BLOOMINGTON    CLOUDY    49  49 100 E13       29.69R FOG
DECATUR        LGT RAIN  51  49  92 NE12      29.62R FOG
PEORIA         LGT RAIN  49  45  86 E17G25    29.64F FOG
LACON*         RAIN      44  42  93 E16G22    29.69S
LINCOLN*       LGT RAIN  51  49  95 E12G17    29.61F
SPRINGFIELD    LGT RAIN  51  50  96 E13       29.60F FOG
TAYLORVILLE    DRZL/FOG  50  50 100 E3        29.58S VSB 1
$$

ILZ033-039-045-046-055>057-062-063-251700-
EAST-CENTRAL ILLINOIS

CITY           SKY/WX    TMP DP  RH WIND       PRES   REMARKS
CHAMPAIGN      RAIN      50  48  93 E16       29.61F FOG
DANVILLE*      DRIZZLE   48  46  93 E12G20    29.64S
RANTOUL*       LGT RAIN  51  49  95 E13       29.64S
MATTOON        CLOUDY    50  50 100 SE10      29.59S FOG
PARIS*         RAIN      50  49  98 E10G17    29.63F
$$

ILZ079-100>102-251700-
SOUTHWEST ILLINOIS

CITY           SKY/WX    TMP DP  RH WIND       PRES   REMARKS
ALTON          CLOUDY    59  57  94 S10       29.54F FOG
BELLEVILLE     CLOUDY    61  61 100 VRB6      29.52F
CAHOKIA*       CLOUDY    63  59  87 S10       29.52F FOG
SPARTA*        CLOUDY    61  58  89 S6        29.55F
$$

ILZ064>066-069>071-074>076-080>082-084>086-088>090-092>094-251700-
SOUTH-CENTRAL ILLINOIS

CITY           SKY/WX    TMP DP  RH WIND       PRES   REMARKS
CARBONDALE     CLOUDY    64  58  80 SW13G24   29.56F
CAIRO*         CLOUDY    64  62  91 SW13      29.59F
EFFINGHAM*     DRZL/FOG  53  51  93 SE8       29.60F VSB 1
MARION         CLOUDY    64  59  82 SW15      29.57F
MT. VERNON     CLOUDY    61  55  82 S8        29.56F
CENTRALIA*     CLOUDY    60  55  83 S7        29.56F
SALEM*         CLOUDY    60  56  89 S6        29.57F FOG
METROPOLIS*    CLOUDY    65  63  94 SW9       29.60S
$$

ILZ067-068-072-073-078-083-087-091-251700-
SOUTHEAST ILLINOIS

CITY           SKY/WX    TMP DP  RH WIND       PRES   REMARKS
LAWRENCEVILLE  LGT RAIN  53  52  96 E9        29.61F VSB 1
FLORA*         CLOUDY    55  55  97 SE5       29.57F FOG
FAIRFIELD*     CLOUDY    60  57  91 S9        29.55F
HARRISBURG*    CLOUDY    64  60  88 SW12G17   29.58F
ROBINSON*      TSTM      51  50  97 SE8       29.62F
CARMI*         CLOUDY    60  53  78 S9        29.57F
$$

ABBREVIATIONS USED IN REMARKS
   TC - TEMPERATURE IN CELSIUS
  WCI - WIND CHILL INDEX
   HX - HEAT INDEX
  VSB - VISIBILITY
$$




USA.gov is the U.S. government's official web portal to all federal, state and local government web resources and services.